www.pogodaiklimat.ru

Погода и климат >> Архив погоды >> Австралия >> Tindal


ПОГОДА в Tindal

  • Прогноз погоды в Tindal
  • Монитор погоды в Tindal
  • Климат города

АРХИВ ПОГОДЫ в Tindal

Время (UTC), дата Ветер
(напр.,м/с)
 
Видим.   Явления Облачность Т
(С)
Тd
(С)
f
(%)
Тe
(С)
Тes
(С)
Комфортность P
(гПа)
Po
(гПа)
Тmin
(С)
Tmax
(С)
R
(мм)
R24
(мм)
S
(см)
23 10.11 С 4 н/о н/о +30.3 +22.2 62 +39 +39 очень
душно
1009.2 994.2
00 11.11 СЗ 4 н/о н/о +32.0 +20.9 52 +39 +39 очень
душно
1009.6 994.6
02 11.11 З 4 н/о н/о +35.2 +20.3 42 +42 +42 опасность
перегрева
1008.2 993.2
03 11.11 З 4 н/о н/о +36.0 +19.9 39 +42 +42 опасность
перегрева
1007.1 992.1
05 11.11 З 4 н/о н/о +37.0 +19.4 36 +42 +42 опасность
перегрева
1005.3 990.3
06 11.11 СЗ 5 н/о н/о +36.6 +19.1 36 +41 +41 опасность
перегрева
1004.8 989.8
08 11.11 СЗ 5 н/о н/о +35.7 +18.7 37 +40 +40 очень
душно
1004.8 989.8
09 11.11 СЗ 5 н/о н/о +35.1 +19.1 39 +40 +40 очень
душно
1005.6 990.6
11 11.11 СЗ 4 н/о н/о +32.5 +20.4 49 +39 +39 очень
душно
1007.2 992.2
12 11.11 СЗ 5 н/о н/о +32.3 +20.5 50 +39 +39 очень
душно
1007.5 992.5
14 11.11 СЗ 3 н/о н/о +30.7 +20.3 54 +37 +37 очень
душно
1007.8 992.8
15 11.11 С 3 н/о н/о +30.3 +20.8 57 +38 +38 очень
душно
1007.4 992.4
17 11.11 З 2 н/о н/о +29.3 +21.0 61 +37 +37 очень
душно
1007.1 992.1
18 11.11 З 3 н/о н/о +28.7 +21.7 66 +37 +37 очень
душно
1007.4 992.4
20 11.11 СЗ 2 н/о н/о +27.5 +22.0 72 +36 +36 очень
душно
1008.5 993.5
21 11.11 СЗ 3 н/о н/о +27.2 +22.2 74 +35 +35 очень
душно
1009.2 994.2
23 11.11 С 4 н/о н/о +30.2 +21.6 60 +38 +38 очень
душно
1010.3 995.3
00 12.11 З 5 н/о н/о +32.5 +20.7 50 +40 +40 очень
душно
1010.1 995.1
02 12.11 З 5 н/о н/о +35.8 +18.8 37 +40 +40 очень
душно
1008.9 993.9
03 12.11 З 4 н/о н/о +36.1 +18.2 35 +40 +40 очень
душно
1007.8 992.8
05 12.11 З 3 н/о н/о +38.0 +17.9 31 +41 +41 опасность
перегрева
1004.8 989.8
06 12.11 СВ 2 н/о н/о +39.0 +17.7 29 +42 +42 опасность
перегрева
1004.1 989.2
08 12.11 З 4 н/о н/о +38.3 +16.6 28 +41 +41 опасность
перегрева
1003.6 988.7
09 12.11 З 3 н/о н/о +37.4 +16.9 30 +40 +40 очень
душно
1004.7 989.7
11 12.11 С 4 н/о н/о +31.3 +21.2 55 +39 +39 очень
душно
1006.8 991.8
12 12.11 С 4 н/о н/о +31.2 +19.5 50 +37 +37 очень
душно
1006.9 991.9
14 12.11 СЗ 4 н/о н/о +30.1 +20.9 58 +37 +37 очень
душно
1007.6 992.6
15 12.11 СЗ 4 н/о н/о +29.7 +21.4 61 +38 +38 очень
душно
1007.4 992.4
17 12.11 С 4 н/о н/о +29.3 +21.5 63 +37 +37 очень
душно
1007.0 992.0
18 12.11 С 4 н/о н/о +29.2 +22.2 66 +38 +38 очень
душно
1007.3 992.3
20 12.11 С 3 н/о н/о +28.5 +23.0 72 +38 +38 очень
душно
1008.4 993.4
21 12.11 С 4 н/о н/о +28.4 +22.9 72 +38 +38 очень
душно
1009.0 994.0
23 12.11 С 5 н/о н/о +30.5 +21.9 60 +39 +39 очень
душно
1009.8 994.8
00 13.11 С 4 н/о н/о +31.7 +21.5 55 +40 +40 очень
душно
1009.9 994.9
02 13.11 СЗ 5 н/о н/о +34.2 +20.9 46 +41 +41 опасность
перегрева
1008.4 993.4
03 13.11 З 5 н/о н/о +36.0 +21.1 42 +43 +43 опасность
перегрева
1007.4 992.4
05 13.11 Ю 2 н/о н/о +37.9 +19.8 35 +43 +43 опасность
перегрева
1004.5 989.5
06 13.11 З 3 н/о н/о +32.7 +24.2 61 +45 +45 опасность
перегрева
1003.9 989.0
08 13.11 СЗ 6 н/о н/о +24.8 +22.1 85 +32 +32 очень
душно
1006.0 991.0
09 13.11 З 2 н/о н/о +25.6 +21.9 80 +33 +33 очень
душно
1006.6 991.6
11 13.11 СЗ 3 н/о н/о +25.9 +23.0 84 +35 +35 очень
душно
1007.4 992.4
12 13.11 С 3 н/о н/о +25.7 +23.4 87 +35 +35 очень
душно
1007.7 992.7
14 13.11 СЗ 3 н/о н/о +25.7 +23.4 87 +35 +35 очень
душно
1007.7 992.7
15 13.11 СЗ 2 н/о н/о +25.7 +23.4 87 +35 +35 очень
душно
1007.5 992.5
17 13.11 З 2 н/о н/о +25.7 +23.4 87 +35 +35 очень
душно
1006.6 991.6
18 13.11 штиль 0 н/о н/о +25.8 +23.3 86 +35 +35 очень
душно
1006.9 991.9
20 13.11 СЗ 2 н/о н/о +25.6 +23.1 86 +34 +34 очень
душно
1008.4 993.4
21 13.11 З 2 н/о н/о +25.8 +23.7 88 +35 +35 очень
душно
1009.4 994.4
23 13.11 СЗ 3 н/о н/о +28.3 +23.0 73 +38 +38 очень
душно
1011.1 996.0
00 14.11 СЗ 3 н/о н/о +29.9 +22.9 66 +40 +40 очень
душно
1011.7 996.6
02 14.11 СЗ 4 н/о н/о +33.1 +22.2 53 +42 +42 опасность
перегрева
1010.1 995.1
03 14.11 З 4 н/о н/о +34.0 +22.1 50 +43 +43 опасность
перегрева
1009.5 994.5
05 14.11 С 3 н/о н/о +35.5 +20.2 41 +42 +42 опасность
перегрева
1006.9 991.9
06 14.11 С 3 н/о н/о +36.1 +19.9 39 +42 +42 опасность
перегрева
1006.1 991.1
08 14.11 З 3 н/о н/о +35.5 +20.6 42 +42 +42 опасность
перегрева
1005.5 990.5
09 14.11 СВ 7 н/о н/о +30.5 +19.5 52 +36 +36 очень
душно
1007.3 992.3
11 14.11 З 2 н/о н/о +24.7 +22.2 86 +32 +32 очень
душно
1008.7 993.7
12 14.11 С 3 н/о н/о +24.7 +22.2 86 +32 +32 очень
душно
1009.2 994.2
14 14.11 З 3 н/о н/о +24.7 +21.6 83 +32 +32 очень
душно
1010.7 995.7
15 14.11 С 4 н/о н/о +24.5 +22.2 87 +32 +32 очень
душно
1009.8 994.8
17 14.11 ЮЗ 3 н/о н/о +25.0 +21.7 82 +32 +32 очень
душно
1008.1 993.1
18 14.11 СВ 2 н/о н/о +25.0 +22.3 85 +33 +33 очень
душно
1008.0 993.0
20 14.11 Ю 2 н/о н/о +24.8 +21.9 84 +32 +32 очень
душно
1010.5 995.5
21 14.11 СВ 3 н/о н/о +25.3 +22.4 84 +33 +33 очень
душно
1011.2 996.1
23 14.11 ЮВ 3 н/о н/о +28.0 +22.2 71 +37 +37 очень
душно
1012.9 997.8
00 15.11 ЮВ 3 н/о н/о +29.3 +21.5 63 +37 +37 очень
душно
1013.0 997.9
02 15.11 СЗ 2 н/о н/о +32.9 +21.7 52 +41 +41 опасность
перегрева
1011.3 996.2
03 15.11 ЮВ 4 н/о н/о +34.4 +20.7 45 +41 +41 опасность
перегрева
1010.3 995.3
05 15.11 С 3 н/о н/о +35.9 +18.5 36 +40 +40 очень
душно
1008.2 993.2
06 15.11 С 4 н/о н/о +36.5 +18.1 34 +40 +40 очень
душно
1006.8 991.8
08 15.11 З 3 н/о н/о +36.1 +18.2 35 +40 +40 очень
душно
1006.5 991.5
09 15.11 Ю 6 н/о н/о +23.9 +22.9 94 +32 +32 очень
душно
1009.6 994.6
11 15.11 С 5 н/о н/о +24.8 +22.5 87 +32 +32 очень
душно
1009.6 994.6
12 15.11 С 4 н/о н/о +25.1 +23.2 89 +34 +34 очень
душно
1009.8 994.8
14 15.11 ЮЗ 2 н/о н/о +25.1 +23.5 91 +34 +34 очень
душно
1010.8 995.8
15 15.11 штиль 0 н/о н/о +25.3 +23.7 91 +34 +34 очень
душно
1010.4 995.4
17 15.11 штиль 0 н/о н/о +25.4 +23.5 89 +34 +34 очень
душно
1009.7 994.7
18 15.11 С 1 н/о н/о +25.3 +23.4 89 +34 +34 очень
душно
1009.9 994.9
20 15.11 С 2 н/о н/о +25.2 +23.1 88 +34 +34 очень
душно
1010.1 995.1
21 15.11 штиль 0 н/о н/о +25.0 +23.4 91 +34 +34 очень
душно
1011.0 995.9
23 15.11 СЗ 2 н/о н/о +27.6 +22.3 73 +36 +36 очень
душно
1011.8 996.7
00 16.11 СВ 2 н/о н/о +29.7 +22.2 64 +39 +39 очень
душно
1011.8 996.7
02 16.11 ЮЗ 3 н/о н/о +33.5 +20.6 47 +40 +40 очень
душно
1010.4 995.4
03 16.11 С 3 н/о н/о +34.5 +20.1 43 +41 +41 опасность
перегрева
1009.5 994.5
05 16.11 ЮВ 3 н/о н/о +36.7 +16.8 31 +39 +39 очень
душно
1007.1 992.1
06 16.11 СВ 3 н/о н/о +36.9 +16.5 30 +39 +39 очень
душно
1006.1 991.1
08 16.11 штиль 0 н/о н/о +37.8 +15.6 27 +39 +39 очень
душно
1005.1 990.1
09 16.11 СВ 3 н/о н/о +35.9 +16.1 31 +38 +38 очень
душно
1005.7 990.7
11 16.11 СЗ 4 н/о н/о +30.7 +20.3 54 +37 +37 очень
душно
1008.5 993.5
12 16.11 В 3 н/о н/о +27.7 +21.3 68 +35 +35 очень
душно
1010.3 995.3
14 16.11 С 3 н/о н/о +27.3 +23.1 78 +37 +37 очень
душно
1011.1 996.0
15 16.11 С 4 н/о н/о +25.3 +22.0 82 +33 +33 очень
душно
1010.6 995.6
17 16.11 СВ 2 н/о н/о +24.7 +21.6 83 +32 +32 очень
душно
1009.7 994.7
18 16.11 С 3 н/о н/о +24.1 +21.6 86 +31 +31 очень
душно
1009.3 994.3
20 16.11 СЗ 3 н/о н/о +24.2 +22.5 90 +32 +32 очень
душно
1010.8 995.8
21 16.11 СЗ 4 н/о н/о +23.6 +21.5 88 +30 +30 очень
душно
1011.2 996.1
23 16.11 З 3 н/о н/о +24.2 +22.1 88 +31 +31 очень
душно
1012.7 997.6
00 17.11 З 4 н/о н/о +26.0 +22.1 79 +34 +34 очень
душно
1012.7 997.6
02 17.11 ЮВ 2 н/о н/о +30.5 +18.2 48 +35 +35 очень
душно
1011.0 995.9
03 17.11 С 3 н/о н/о +32.2 +16.9 40 +36 +36 очень
душно
1010.0 995.0
05 17.11 С 3 н/о н/о +35.0 +16.3 33 +38 +38 очень
душно
1007.7 992.7
06 17.11 С 3 н/о н/о +35.2 +16.0 32 +37 +37 очень
душно
1006.9 991.9
08 17.11 З 4 н/о н/о +35.0 +15.8 32 +37 +37 очень
душно
1006.3 991.3
09 17.11 З 4 н/о н/о +32.8 +17.0 39 +36 +36 очень
душно
1006.5 991.5
11 17.11 СЗ 2 н/о н/о +29.2 +20.4 59 +36 +36 очень
душно
1007.6 992.6
12 17.11 З 2 н/о н/о +28.8 +19.4 57 +35 +35 очень
душно
1008.2 993.2
14 17.11 штиль 0 н/о н/о +27.0 +21.1 70 +34 +34 очень
душно
1008.8 993.8
15 17.11 СВ 2 н/о н/о +27.3 +21.3 70 +35 +35 очень
душно
1008.5 993.5
17 17.11 С 5 н/о н/о +24.9 +21.6 82 +32 +32 очень
душно
1008.7 993.7
18 17.11 С 5 н/о н/о +23.3 +20.2 83 +31 +31 очень
душно
1009.6 994.6
20 17.11 З 3 н/о н/о +22.0 +20.5 91 +28 +28 душно 1010.4 995.4

 

Местоположение метеостанции Tindal (Северная территория, Австралия): широта -14.51 долгота 132.36 высота над уровнем моря 135 м.

В архиве по умолчанию представлена погода в Tindal за последнюю неделю. Архивные данные за месяц целиком и за предыдущие месяцы, начиная с января 2011 года, Вы можете получить, выбрав интересующий диапазон дат из раскрывающегося списка и нажав кнопку "Ввод!".


*Определитесь, кто Вы:
робот инопланетянин человек

Внимание! Время в таблицах - всемирное. Для получения местного времени необходимо прибавить поправку, которая в Tindal равна 9.5 ч.

Смотрите также архив погоды в соседних городах и на ближайших метеорологических станциях:

Погода в Delamere Weapons Range (Северная территория, Австралия) (146 км)
Погода в Cape Don Lighthouse (Северная территория, Австралия) (148 км)
Погода в Central Arnhem Plateau (Северная территория, Австралия) (153 км)
Погода в Manbulloo Csiro (Северная территория, Австралия) (175 км)
Погода в Jabiru Airport (Северная территория, Австралия) (213 км)
Погода в Batchelor Fld (Северная территория, Австралия) (218 км)
Погода в Daly Waters Aws (Северная территория, Австралия) (222 км)
Погода в Bulman Aws (Северная территория, Австралия) (232 км)
Погода в Middle Point Aws (Северная территория, Австралия) (241 км)
Погода в Victoria River Downs (Северная территория, Австралия) (255 км)

Пояснения к столбцам:

Ветер - указаны скорость ветра в м/с - средняя за 10 мин, порывы в срок и между сроками (в фигурных скобках) и направление, откуда дует ветер: С - северный, СВ - северо-восточный, В - восточный, ЮВ - юго-восточный, Ю - южный, ЮЗ - юго-западный, З - западный, СЗ - северо-западный.
Видимость - горизонтальная дальность видимости в метрах или километрах. При видимости от 1 до 10 км при отсутствии осадков обычно наблюдается дымка, при ухудшении видимости до 1 км и менее - туман. В сухую погоду видимость может ухудшаться дымом, пылью или мглою.
Явления - указаны атмосферные явления, наблюдавшиеся в срок или в последний час перед сроком; фигурными скобками обозначены явления, наблюдавшиеся между сроками (за 1-3 часа до срока); квадратными скобками обозначены град или гололедные отложения с указанием их диаметра в мм.
Облачность - указаны через наклонную черту общая и нижняя облачность в баллах и высота нижней границы облаков в метрах; квадратными скобками обозначены формы облаков: Ci - перистые, Cs - перисто-слоистые, Cc - перисто-кучевые, Ac - высококучевые, As - высокослоистые, Sc - слоисто-кучевые, Ns - слоисто-дождевые, Cu - кучевые, Cb - кучево-дождевые. Подробнее классификацию облаков см. в Атласе облаков (PDF).
T - Температура воздуха - температура, измеренная на высоте 2 м над землей.
Td - Температура точки росы - температура, при понижении до которой содержащийся в воздухе водяной пар достигнет насыщения.
f - Относительная влажность воздуха - влажноcть воздуха, измеренная на высоте 2 м над землей.
Te - Эффективная температура - температура, которую ощущает одетый по сезону человек в тени. Характеристика душности погоды. При расчете учитывается влияние влажности воздуха и скорости ветра на теплоощущения человека.
Tes - Эффективная температура на солнце - температура, которую ощущает человек, с поправкой на солнечный нагрев. Характеристика знойности погоды. Зависит от высоты солнца над горизонтом, облачности и скорости ветра. Ночью, в пасмурную погоду, а также при ветре 12 м/с и более поправка равна нулю.
P - Атмосферное давление - приведенное к уровню моря атмосферное давление.
Po - Атмосферное давление - измеренное на уровне метеостанции атмосферное давление.
Tmin - Минимальная температура - минимум температуры воздуха на высоте 2 м над землей.
Tmax - Максимальная температура - максимум температуры воздуха на высоте 2 м над землей.
R - Количество осадков - Количество выпавших осадков за период времени, мм. При наведении курсора мыши на число - период времени, за который выпало указанное количество осадков.
R24 - Количество осадков - Количество выпавших осадков за 24 часа, мм.
S - Снежный покров - Высота снежного покрова, см. При наведении курсора мыши на число - состояние снежного покрова и степень покрытия местности в баллах.